TimeAKDT,TemperatureF,Dew PointF,Humidity,Sea Level PressureIn,VisibilityMPH,Wind Direction,Wind SpeedMPH,Gust SpeedMPH,PrecipitationIn,Events,Conditions,WindDirDegrees,DateUTC
12:56 AM,54.9,50.0,84,30.24,10.0,Calm,Calm,-,N/A,,Overcast,0,2013-07-05 08:56:00
1:56 AM,54.0,50.0,86,30.25,10.0,Calm,Calm,-,N/A,,Overcast,0,2013-07-05 09:56:00
2:56 AM,54.0,50.0,86,30.24,10.0,Calm,Calm,-,N/A,,Overcast,0,2013-07-05 10:56:00
3:56 AM,54.0,50.9,89,30.24,10.0,Calm,Calm,-,N/A,,Overcast,0,2013-07-05 11:56:00
4:56 AM,54.0,50.0,86,30.24,10.0,Calm,Calm,-,N/A,,Overcast,0,2013-07-05 12:56:00
5:56 AM,54.0,50.0,86,30.24,10.0,East,3.5,-,N/A,,Overcast,100,2013-07-05 13:56:00
6:56 AM,55.4,51.8,88,30.24,10.0,East,3.5,-,N/A,,Overcast,100,2013-07-05 14:56:00
7:56 AM,54.9,50.9,86,30.25,10.0,East,3.5,-,N/A,,Overcast,90,2013-07-05 15:56:00
8:22 AM,55.4,51.8,88,30.24,10.0,Calm,Calm,-,N/A,,Overcast,0,2013-07-05 16:22:00
8:56 AM,55.9,50.9,83,30.25,10.0,WSW,3.5,-,N/A,,Overcast,250,2013-07-05 16:56:00
9:56 AM,55.9,50.9,83,30.25,10.0,Variable,3.5,-,N/A,,Overcast,0,2013-07-05 17:56:00
10:14 AM,55.4,51.8,88,30.24,7.0,East,5.8,-,0.00,,Overcast,100,2013-07-05 18:14:00
10:42 AM,55.4,51.8,88,30.24,10.0,East,6.9,-,0.00,,Overcast,90,2013-07-05 18:42:00
10:56 AM,55.9,52.0,87,30.25,10.0,East,5.8,-,0.00,,Overcast,90,2013-07-05 18:56:00
11:56 AM,56.8,52.0,84,30.24,10.0,ESE,5.8,-,N/A,,Overcast,110,2013-07-05 19:56:00
12:11 PM,57.2,53.6,88,30.24,10.0,East,5.8,-,N/A,,Overcast,90,2013-07-05 20:11:00
12:33 PM,57.2,53.6,88,30.24,10.0,East,6.9,-,N/A,,Overcast,90,2013-07-05 20:33:00
12:56 PM,57.2,51.8,82,30.24,10.0,East,5.8,-,N/A,,Overcast,90,2013-07-05 20:56:00
1:18 PM,57.2,53.6,88,30.24,10.0,East,6.9,-,N/A,,Overcast,100,2013-07-05 21:18:00
1:56 PM,57.9,52.9,83,30.25,10.0,East,9.2,-,N/A,,Overcast,90,2013-07-05 21:56:00
2:56 PM,57.9,52.0,81,30.25,10.0,ENE,5.8,-,N/A,,Overcast,70,2013-07-05 22:56:00
3:56 PM,56.8,52.9,87,30.24,10.0,East,6.9,-,N/A,,Overcast,100,2013-07-05 23:56:00
4:32 PM,57.2,53.6,88,30.23,10.0,Calm,Calm,-,N/A,,Overcast,0,2013-07-06 00:32:00
4:43 PM,57.2,53.6,88,30.23,2.5,Variable,3.5,-,0.00,Rain,Light Rain,0,2013-07-06 00:43:00
4:56 PM,55.9,54.0,93,30.24,1.8,West,4.6,-,0.00,Rain,Light Rain,260,2013-07-06 00:56:00
5:19 PM,55.4,53.6,94,30.23,3.0,Calm,Calm,-,0.00,Rain,Light Rain,0,2013-07-06 01:19:00
5:24 PM,55.4,53.6,94,30.23,2.5,Calm,Calm,-,0.00,Rain,Light Rain,0,2013-07-06 01:24:00
5:39 PM,55.4,53.6,94,30.23,2.5,Calm,Calm,-,0.00,Rain,Light Rain,0,2013-07-06 01:39:00
5:56 PM,54.9,54.0,97,30.23,2.5,East,4.6,-,0.00,,Overcast,100,2013-07-06 01:56:00
6:07 PM,55.4,53.6,94,30.23,5.0,Calm,Calm,-,N/A,,Overcast,0,2013-07-06 02:07:00
6:12 PM,55.4,53.6,94,30.23,4.0,Calm,Calm,-,N/A,,Overcast,0,2013-07-06 02:12:00
6:27 PM,53.6,53.6,100,30.22,2.0,SE,3.5,-,N/A,,Overcast,130,2013-07-06 02:27:00
6:56 PM,55.4,53.6,94,30.22,3.0,Calm,Calm,-,N/A,,Overcast,0,2013-07-06 02:56:00
6:59 PM,55.4,53.6,94,30.22,2.5,Calm,Calm,-,N/A,,Overcast,0,2013-07-06 02:59:00
7:18 PM,55.4,53.6,94,30.22,1.8,Calm,Calm,-,N/A,,Overcast,0,2013-07-06 03:18:00
7:29 PM,55.4,53.6,94,30.22,3.0,Calm,Calm,-,N/A,,Overcast,0,2013-07-06 03:29:00
7:56 PM,54.0,54.0,100,30.23,5.0,Calm,Calm,-,N/A,,Overcast,0,2013-07-06 03:56:00
8:56 PM,54.9,54.0,97,30.22,2.0,Calm,Calm,-,N/A,,Overcast,0,2013-07-06 04:56:00
9:05 PM,53.6,53.6,100,30.22,1.2,Calm,Calm,-,N/A,,Overcast,0,2013-07-06 05:05:00
9:16 PM,53.6,53.6,100,30.22,1.5,Calm,Calm,-,N/A,,Overcast,0,2013-07-06 05:16:00
9:44 PM,53.6,53.6,100,30.22,3.0,Calm,Calm,-,N/A,,Overcast,0,2013-07-06 05:44:00
9:56 PM,53.6,53.6,100,30.22,10.0,Calm,Calm,-,N/A,,Overcast,0,2013-07-06 05:56:00
10:56 PM,54.0,54.0,100,30.22,10.0,Variable,3.5,-,N/A,,Overcast,0,2013-07-06 06:56:00
11:56 PM,52.9,52.9,100,30.22,10.0,Calm,Calm,-,N/A,,Overcast,0,2013-07-06 07:56:00